Location: Atbuku
(36.4936°N, 30.4362°E)
Time: 16:21:47
(UTC+00:00)

SKYMED 2 - Pass Details

Date: 11 December 2025
Orbit: 622 x 623 km, 97.9° (Epoch: 16 January)

Event Time Altitude Azimuth Distance (km) Brightness Sun altitude
Exits shadow 15:21:04 - 26° (NNE) 2,690 6.4 -7.7°
Reaches altitude 10° 15:22:56 10° 35° (NE) 1,996 5.7 -8.1°
Maximum altitude 15:26:44 29° 97° (E) 1,133 4.4 -8.8°
Drops below altitude 10° 15:30:31 10° 158° (SSE) 1,983 6.2 -9.5°
Sets 15:32:55 0° 169° (S) 2,884 7.1 -9.9°
